Regional Weather Roundup
Issued by NWS

Home | Current Version | Previous Version | Graphics & Text | Print | Product List | Glossary On
Versions: 1 2 3 4 5 6 7 8 9 10 11 12 13 14 15 16 17 18 19 20 21 22 23 24 25 26 27 28 29 30 31 32 33 34 35 36 37 38 39 40 41 42 43 44 45 46 47 48 49 50
000
ASUS45 KBOU 231607
RWRCO

WEATHER ROUNDUP FOR COLORADO
NATIONAL WEATHER SERVICE DENVER/BOULDER CO
1000 AM MDT SAT AUG 23 2014

NOTE: "FAIR" INDICATES FEW OR NO CLOUDS BELOW 12000 FEET WITH NO
SIGNIFICANT WEATHER AND/OR OBSTRUCTIONS TO VISIBILITY.

COZ001>005-013-030-031-231700-
...NORTHWEST COLORADO...

CITY           SKY/WX    TMP DP  RH WIND       PRES   REMARKS
CRAIG          LGT RAIN  53  48  83 W5        30.12R
HAYDEN         PTSUNNY   52  45  76 E9        30.10R
MEEKER         LGT RAIN  52  48  86 NW3       30.13R
MOUNT WERNER   NOT AVBL
STEAMBOAT SPGS CLOUDY    50  44  79 E6        30.09F
WALDEN         CLOUDY    54  41  62 S20G28    30.13S
$$

COZ006>008-011-231700-
...WEST CENTRAL VALLEYS...

CITY           SKY/WX    TMP DP  RH WIND       PRES   REMARKS
GRAND JUNCTION HVY RAIN  55  55 100 NW6       30.08R FOG
MONTROSE       CLOUDY    60  54  80 CALM      30.12R
EAGLE          CLOUDY    54  52  94 CALM      30.14F
RIFLE          RAIN      53  50  89 CALM      30.12S FOG
DELTA          RAIN      62  57  82 N3        30.09R
NUCLA          PTSUNNY   64  50  59 SW13G22   30.16R
$$

COZ017>023-064>068-231700-
...SOUTHWEST COLORADO...

CITY           SKY/WX    TMP DP  RH WIND       PRES   REMARKS
DURANGO        MOSUNNY   59  51  75 E6        30.21F
CORTEZ         CLOUDY    64  52  64 SW5       30.16S
PAGOSA SPRINGS CLOUDY    56  49  76 SE3       30.27S
TELLURIDE      MOSUNNY   55  43  62 CALM      30.28R
WOLF CREEK PAS NOT AVBL
$$

COZ009-010-012-014-032>034-037-058>063-231700-
...CENTRAL COLORADO...

CITY           SKY/WX    TMP DP  RH WIND       PRES   REMARKS
ASPEN          LGT RAIN  52  47  83 N3        30.17S
BUENA VISTA    PTSUNNY   61  42  49 W12G18    30.17S
COPPER MTN     PTSUNNY   46  37  71 S10       30.38S
BERTHOUD PASS  FOG       36  34  93 W20G28    30.38R VSB<1/4
COTTONWOOD PAS LGT RAIN  52  41  66 W9G20     30.28R
GUNNISON       MOSUNNY   55  48  76 CALM      30.22S
KREMMLING      PTSUNNY   54  41  62 E3        30.16S
LEADVILLE      PTSUNNY   50  39  66 VRB5      30.25F
MONARCH PASS   FOG       39  37  93 W25G33    30.49R VSB<1/4
SALIDA         MOSUNNY   66  44  44 S10G21    30.22S
SUNLIGHT       LGT RAIN  45  45 100 CALM      30.31S VSB 1/2
WILKERSON PASS NOT AVBL
$$

COZ069>075-231700-
...SAN LUIS VALLEY/SANGRE DE CRISTO MOUNTAINS...

CITY           SKY/WX    TMP DP  RH WIND       PRES   REMARKS
ALAMOSA        SUNNY     61  51  70 SW8       30.21S
LA VETA PASS   NOT AVBL
SAGUACHE       CLOUDY    55  46  71 S6        30.23S
$$

COZ035-036-038>040-231700-
...NORTHERN COLORADO FRONT RANGE...

CITY           SKY/WX    TMP DP  RH WIND       PRES   REMARKS
DENVER INTL AP MOSUNNY   67  57  70 VRB5      29.97S
DMNS CITY PARK   N/A     70  55  59 N1        29.96F
AURORA         NOT AVBL
FRONT RANGE AP NOT AVBL
ERIE MUNI ARPT MOSUNNY   64  58  81 NE3       29.96S
BOULDER MUN AP MOSUNNY   66  59  77 NE5       29.96S
CENTENNIAL     MOSUNNY   66  52  60 W6        29.99S
BROOMFIELD     PTSUNNY   64  59  82 CALM      29.99S
FORT COLLINS   PTSUNNY   64  57  77 CALM      29.96S
LONGMONT       MOSUNNY   73  59  62 E3        29.96F HAZE
$$

COZ041-046-047-076>085-087-088-231700-
...PIKES PEAK/PALMER DIVIDE AND SOUTHERN FOOTHILLS...

CITY           SKY/WX    TMP DP  RH WIND       PRES   REMARKS
COLO. SPRINGS  MOSUNNY   66  55  67 CALM      30.03S
A. F. ACADEMY  SUNNY     69  49  48 S6        30.04R
ELLICOTT       SUNNY     65  55  70 W6        30.01S
FALCON         SUNNY     68  48  47 SW10      30.06S
FORT CARSON    SUNNY     64  56  73 CALM      30.01S
LIMON          SUNNY     69  56  62 W8        29.97R
MONUMENT HILL  SUNNY     68  45  42 W7        30.05S
TRINIDAD       SUNNY     75  46  35 SW18      30.03S
$$

COZ042>045-048>051-090-091-231700-
...NORTHEAST COLORADO...

CITY           SKY/WX    TMP DP  RH WIND       PRES   REMARKS
GREELEY ARPT   CLOUDY    66  55  68 N3        29.95S
AKRON          MOSUNNY   67  58  72 VRB7      29.94S
BURLINGTON     MOSUNNY   73  61  65 VRB3      29.93R
WRAY             N/A     72  62  71 NW9       29.91S
STERLING       PTSUNNY   72  63  73 N5        29.90S
HOLYOKE        NOT AVBL
FORT MORGAN    MOSUNNY   67  56  67 CALM      29.93F
$$

COZ086-089-092>099-231700-
...SOUTHEAST COLORADO...

CITY           SKY/WX    TMP DP  RH WIND       PRES   REMARKS
PUEBLO         SUNNY     75  48  38 W13       29.94F
LA JUNTA       SUNNY     76  54  46 W15       29.92F
LAMAR          SUNNY     79  56  45 W14       29.89S
SPRINGFIELD      N/A     80  50  34 SW17      29.95S
$$



USA.gov is the U.S. government's official web portal to all federal, state and local government web resources and services.